Time,TemperatureF,DewpointF,PressureIn,WindDirection,WindDirectionDegrees,WindSpeedMPH,WindSpeedGustMPH,Humidity,HourlyPrecipIn,Conditions,Clouds,dailyrainin,SoftwareType,DateUTC
2013-03-17 00:03:00,40.0,36.0,29.97,North,360,6.0,9.0,85,0.00,,,0.00,,2013-03-17 04:03:00,
2013-03-17 00:12:00,40.0,36.0,29.97,North,360,6.0,9.0,85,0.00,,,0.00,,2013-03-17 04:12:00,
2013-03-17 00:23:00,40.0,36.0,29.97,NNW,337,3.0,5.0,85,0.00,,,0.00,,2013-03-17 04:23:00,
2013-03-17 00:32:00,39.0,35.0,29.96,North,360,6.0,9.0,85,0.00,,,0.00,,2013-03-17 04:32:00,
2013-03-17 00:42:00,39.0,35.0,29.96,North,360,6.0,9.0,85,0.00,,,0.00,,2013-03-17 04:42:00,
2013-03-17 00:53:00,39.0,35.0,29.97,North,360,5.0,7.0,85,0.00,,,0.00,,2013-03-17 04:53:00,
2013-03-17 01:02:00,39.0,35.0,29.97,NNE,22,9.0,10.0,85,0.00,,,0.00,,2013-03-17 05:02:00,
2013-03-17 01:12:00,39.0,35.0,29.97,NNE,22,9.0,10.0,85,0.00,,,0.00,,2013-03-17 05:12:00,
2013-03-17 01:22:00,39.0,35.0,29.97,NNE,22,9.0,10.0,85,0.00,,,0.00,,2013-03-17 05:22:00,
2013-03-17 01:32:00,39.0,35.0,29.95,North,360,5.0,6.0,86,0.00,,,0.00,,2013-03-17 05:32:00,
2013-03-17 01:42:00,39.0,35.0,29.95,North,360,5.0,6.0,86,0.00,,,0.00,,2013-03-17 05:42:00,
2013-03-17 01:52:00,38.0,34.0,29.95,North,360,5.0,7.0,86,0.00,,,0.00,,2013-03-17 05:52:00,
2013-03-17 02:02:00,38.0,34.0,29.94,North,360,7.0,10.0,86,0.00,,,0.00,,2013-03-17 06:02:00,
2013-03-17 02:12:00,38.0,34.0,29.94,North,360,7.0,10.0,86,0.00,,,0.00,,2013-03-17 06:12:00,
2013-03-17 02:22:00,38.0,34.0,29.93,NE,45,9.0,13.0,86,0.00,,,0.00,,2013-03-17 06:22:00,
2013-03-17 02:32:00,38.0,34.0,29.96,North,360,4.0,7.0,85,0.00,,,0.00,,2013-03-17 06:32:00,
2013-03-17 02:42:00,38.0,34.0,29.96,North,360,4.0,7.0,85,0.00,,,0.00,,2013-03-17 06:42:00,
2013-03-17 02:52:00,38.0,34.0,29.96,North,360,5.0,7.0,85,0.00,,,0.00,,2013-03-17 06:52:00,
2013-03-17 03:02:00,38.0,34.0,29.96,North,360,5.0,7.0,85,0.00,,,0.00,,2013-03-17 07:02:00,
2013-03-17 03:12:00,38.0,34.0,29.96,North,360,5.0,7.0,85,0.00,,,0.00,,2013-03-17 07:12:00,
2013-03-17 03:22:00,38.0,35.0,29.96,North,360,5.0,7.0,90,0.00,,,0.00,,2013-03-17 07:22:00,
2013-03-17 03:32:00,38.0,35.0,29.96,NNE,22,6.0,9.0,89,0.00,,,0.00,,2013-03-17 07:32:00,
2013-03-17 03:42:00,38.0,35.0,29.96,NNE,22,6.0,9.0,89,0.00,,,0.00,,2013-03-17 07:42:00,
2013-03-17 03:52:00,37.0,34.0,29.96,North,360,6.0,8.0,88,0.00,,,0.00,,2013-03-17 07:52:00,
2013-03-17 04:02:00,37.0,34.0,29.95,NNE,22,5.0,6.0,88,0.00,,,0.00,,2013-03-17 08:02:00,
2013-03-17 04:12:00,37.0,34.0,29.97,NNE,22,5.0,6.0,88,0.00,,,0.00,,2013-03-17 08:12:00,
2013-03-17 04:22:00,37.0,34.0,29.97,NNE,22,5.0,6.0,88,0.00,,,0.00,,2013-03-17 08:22:00,
2013-03-17 04:32:00,37.0,35.0,29.96,North,360,5.0,10.0,93,0.00,,,0.00,,2013-03-17 08:32:00,
2013-03-17 04:42:00,37.0,35.0,29.96,North,360,5.0,10.0,93,0.00,,,0.00,,2013-03-17 08:42:00,
2013-03-17 04:52:00,37.0,36.0,29.96,North,360,6.0,8.0,95,0.00,,,0.00,,2013-03-17 08:52:00,
2013-03-17 05:02:00,36.0,35.0,29.97,North,360,1.0,5.0,96,0.00,,,0.00,,2013-03-17 09:02:00,
2013-03-17 05:12:00,36.0,35.0,29.97,North,360,1.0,5.0,96,0.00,,,0.00,,2013-03-17 09:12:00,
2013-03-17 05:22:00,36.0,36.0,29.98,North,360,4.0,5.0,100,0.00,,,0.01,,2013-03-17 09:22:00,
2013-03-17 05:32:00,35.0,35.0,29.98,North,360,4.0,6.0,100,0.00,,,0.01,,2013-03-17 09:32:00,
2013-03-17 05:42:00,35.0,35.0,29.98,North,360,4.0,6.0,100,0.00,,,0.01,,2013-03-17 09:42:00,
2013-03-17 05:53:00,35.0,35.0,30.00,NNE,22,3.0,4.0,100,0.00,,,0.01,,2013-03-17 09:53:00,
2013-03-17 06:03:00,35.0,35.0,30.00,ENE,67,4.0,5.0,100,0.00,,,0.02,,2013-03-17 10:03:00,
2013-03-17 06:13:00,35.0,35.0,30.00,ENE,67,4.0,5.0,100,0.00,,,0.02,,2013-03-17 10:13:00,
2013-03-17 06:23:00,34.0,34.0,29.98,NNE,22,2.0,5.0,100,0.00,,,0.03,,2013-03-17 10:23:00,
2013-03-17 06:33:00,34.0,34.0,29.98,East,90,1.0,4.0,100,0.00,,,0.03,,2013-03-17 10:33:00,
2013-03-17 06:42:00,34.0,34.0,29.98,East,90,1.0,4.0,100,0.00,,,0.03,,2013-03-17 10:42:00,
2013-03-17 06:52:00,34.0,34.0,29.98,East,90,2.0,4.0,100,0.00,,,0.03,,2013-03-17 10:52:00,
2013-03-17 07:02:00,34.0,34.0,30.00,NE,45,1.0,2.0,100,0.00,,,0.03,,2013-03-17 11:02:00,
2013-03-17 07:12:00,34.0,34.0,30.00,NE,45,1.0,2.0,100,0.00,,,0.03,,2013-03-17 11:12:00,
2013-03-17 07:22:00,34.0,34.0,30.00,North,360,7.0,9.0,100,0.00,,,0.04,,2013-03-17 11:22:00,
2013-03-17 07:32:00,34.0,34.0,30.01,NNE,22,6.0,7.0,100,0.00,,,0.04,,2013-03-17 11:32:00,
2013-03-17 07:42:00,34.0,34.0,30.01,NNE,22,6.0,7.0,100,0.00,,,0.04,,2013-03-17 11:42:00,
2013-03-17 07:52:00,35.0,35.0,30.01,North,360,6.0,9.0,100,0.00,,,0.04,,2013-03-17 11:52:00,
2013-03-17 08:02:00,35.0,35.0,30.03,North,360,6.0,9.0,100,0.00,,,0.04,,2013-03-17 12:02:00,
2013-03-17 08:12:00,35.0,35.0,30.03,North,360,6.0,9.0,100,0.00,,,0.04,,2013-03-17 12:12:00,
2013-03-17 08:22:00,35.0,35.0,30.03,NNE,22,4.0,9.0,100,0.00,,,0.04,,2013-03-17 12:22:00,
2013-03-17 08:32:00,35.0,35.0,30.03,NE,45,5.0,7.0,100,0.00,,,0.04,,2013-03-17 12:32:00,
2013-03-17 08:42:00,35.0,35.0,30.03,NE,45,5.0,7.0,100,0.00,,,0.04,,2013-03-17 12:42:00,
2013-03-17 08:52:00,35.0,35.0,30.03,NNE,22,5.0,9.0,100,0.00,,,0.04,,2013-03-17 12:52:00,
2013-03-17 09:02:00,35.0,35.0,30.03,North,360,4.0,8.0,100,0.00,,,0.04,,2013-03-17 13:02:00,
2013-03-17 09:12:00,35.0,35.0,30.03,North,360,4.0,8.0,100,0.00,,,0.04,,2013-03-17 13:12:00,
2013-03-17 09:22:00,35.0,34.0,30.02,NE,45,4.0,6.0,96,0.00,,,0.04,,2013-03-17 13:22:00,
2013-03-17 09:32:00,35.0,34.0,30.02,ENE,67,3.0,6.0,97,0.00,,,0.04,,2013-03-17 13:32:00,
2013-03-17 09:42:00,35.0,34.0,30.02,ENE,67,3.0,6.0,97,0.00,,,0.04,,2013-03-17 13:42:00,
2013-03-17 09:52:00,35.0,34.0,30.02,ENE,67,3.0,6.0,97,0.00,,,0.04,,2013-03-17 13:52:00,
2013-03-17 10:02:00,35.0,34.0,30.02,ENE,67,5.0,8.0,97,0.00,,,0.04,,2013-03-17 14:02:00,
2013-03-17 10:12:00,35.0,34.0,30.02,ENE,67,5.0,8.0,97,0.00,,,0.04,,2013-03-17 14:12:00,
2013-03-17 10:22:00,34.0,34.0,30.02,ESE,112,2.0,9.0,100,0.00,,,0.04,,2013-03-17 14:22:00,
2013-03-17 10:32:00,34.0,34.0,30.02,NE,45,6.0,12.0,100,0.00,,,0.05,,2013-03-17 14:32:00,
2013-03-17 10:42:00,34.0,34.0,30.02,NE,45,6.0,12.0,100,0.00,,,0.05,,2013-03-17 14:42:00,
2013-03-17 10:52:00,34.0,34.0,30.02,East,90,3.0,6.0,100,0.00,,,0.05,,2013-03-17 14:52:00,
2013-03-17 11:02:00,35.0,35.0,30.02,North,360,5.0,8.0,100,0.00,,,0.05,,2013-03-17 15:02:00,
2013-03-17 11:12:00,35.0,35.0,30.02,North,360,5.0,8.0,100,0.00,,,0.05,,2013-03-17 15:12:00,
2013-03-17 11:23:00,35.0,35.0,30.02,SE,135,3.0,6.0,100,0.00,,,0.05,,2013-03-17 15:23:00,
2013-03-17 11:33:00,36.0,36.0,30.03,ENE,67,3.0,6.0,100,0.00,,,0.05,,2013-03-17 15:33:00,
2013-03-17 11:42:00,36.0,36.0,30.03,ENE,67,3.0,6.0,100,0.00,,,0.05,,2013-03-17 15:42:00,
2013-03-17 11:52:00,35.0,35.0,30.03,SE,135,4.0,7.0,100,0.00,,,0.05,,2013-03-17 15:52:00,
2013-03-17 12:03:00,35.0,35.0,30.03,NE,45,4.0,6.0,100,0.00,,,0.05,,2013-03-17 16:03:00,
2013-03-17 12:12:00,35.0,35.0,30.03,NE,45,4.0,6.0,100,0.00,,,0.05,,2013-03-17 16:12:00,
2013-03-17 12:22:00,35.0,35.0,30.03,NE,45,5.0,10.0,100,0.00,,,0.05,,2013-03-17 16:22:00,
2013-03-17 12:33:00,36.0,36.0,30.03,East,90,5.0,7.0,100,0.00,,,0.05,,2013-03-17 16:33:00,
2013-03-17 12:42:00,36.0,36.0,30.03,East,90,5.0,7.0,100,0.00,,,0.05,,2013-03-17 16:42:00,
2013-03-17 12:52:00,36.0,36.0,30.03,ENE,67,5.0,9.0,100,0.00,,,0.05,,2013-03-17 16:52:00,
2013-03-17 13:02:00,36.0,35.0,30.03,NE,45,2.0,3.0,98,0.00,,,0.05,,2013-03-17 17:02:00,
2013-03-17 13:12:00,36.0,35.0,30.03,NE,45,2.0,3.0,98,0.00,,,0.05,,2013-03-17 17:12:00,
2013-03-17 13:22:00,37.0,36.0,30.03,NE,45,6.0,10.0,95,0.00,,,0.05,,2013-03-17 17:22:00,
2013-03-17 13:33:00,37.0,36.0,30.03,SE,135,4.0,7.0,95,0.00,,,0.05,,2013-03-17 17:33:00,
2013-03-17 13:42:00,37.0,36.0,30.03,SE,135,4.0,7.0,95,0.00,,,0.05,,2013-03-17 17:42:00,
2013-03-17 13:52:00,37.0,35.0,30.03,NE,45,5.0,8.0,94,0.00,,,0.05,,2013-03-17 17:52:00,
2013-03-17 14:02:00,37.0,36.0,30.03,NNE,22,4.0,6.0,95,0.00,,,0.05,,2013-03-17 18:02:00,
2013-03-17 14:12:00,37.0,36.0,30.03,NNE,22,4.0,6.0,95,0.00,,,0.05,,2013-03-17 18:12:00,
2013-03-17 14:22:00,36.0,35.0,30.03,ENE,67,3.0,6.0,98,0.00,,,0.05,,2013-03-17 18:22:00,
2013-03-17 14:32:00,36.0,36.0,30.03,NNE,22,4.0,10.0,100,0.00,,,0.06,,2013-03-17 18:32:00,
2013-03-17 14:42:00,36.0,36.0,30.03,NNE,22,4.0,10.0,100,0.00,,,0.06,,2013-03-17 18:42:00,
2013-03-17 14:52:00,35.0,35.0,30.02,North,360,4.0,9.0,100,0.00,,,0.07,,2013-03-17 18:52:00,
2013-03-17 15:02:00,36.0,36.0,30.01,SE,135,4.0,7.0,100,0.00,,,0.08,,2013-03-17 19:02:00,
2013-03-17 15:12:00,36.0,36.0,30.01,SE,135,4.0,7.0,100,0.00,,,0.08,,2013-03-17 19:12:00,
2013-03-17 15:22:00,36.0,36.0,30.00,ENE,67,3.0,7.0,100,0.00,,,0.08,,2013-03-17 19:22:00,
2013-03-17 15:33:00,37.0,37.0,30.00,NNE,22,6.0,10.0,100,0.00,,,0.08,,2013-03-17 19:33:00,
2013-03-17 15:42:00,37.0,37.0,30.00,NNE,22,6.0,10.0,100,0.00,,,0.08,,2013-03-17 19:42:00,
2013-03-17 15:53:00,37.0,37.0,29.98,North,360,8.0,13.0,100,0.00,,,0.08,,2013-03-17 19:53:00,
2013-03-17 16:02:00,37.0,37.0,29.98,NE,45,5.0,8.0,100,0.00,,,0.08,,2013-03-17 20:02:00,
2013-03-17 16:12:00,37.0,37.0,29.98,NE,45,5.0,8.0,100,0.00,,,0.08,,2013-03-17 20:12:00,
2013-03-17 16:22:00,37.0,37.0,29.98,South,180,5.0,10.0,100,0.00,,,0.08,,2013-03-17 20:22:00,
2013-03-17 16:32:00,37.0,37.0,29.97,NE,45,6.0,9.0,100,0.00,,,0.09,,2013-03-17 20:32:00,
2013-03-17 16:42:00,37.0,37.0,29.97,NE,45,6.0,9.0,100,0.00,,,0.09,,2013-03-17 20:42:00,
2013-03-17 16:52:00,37.0,37.0,29.97,NE,45,6.0,9.0,100,0.00,,,0.09,,2013-03-17 20:52:00,
2013-03-17 17:02:00,37.0,37.0,29.96,SSE,157,7.0,12.0,100,0.00,,,0.09,,2013-03-17 21:02:00,
2013-03-17 17:12:00,37.0,37.0,29.96,SSE,157,7.0,12.0,100,0.00,,,0.09,,2013-03-17 21:12:00,
2013-03-17 17:22:00,37.0,37.0,29.95,East,90,7.0,12.0,100,0.00,,,0.09,,2013-03-17 21:22:00,
2013-03-17 17:33:00,37.0,37.0,29.94,North,360,3.0,10.0,100,0.00,,,0.09,,2013-03-17 21:33:00,
2013-03-17 17:42:00,37.0,37.0,29.94,North,360,3.0,10.0,100,0.00,,,0.09,,2013-03-17 21:42:00,
2013-03-17 17:52:00,37.0,37.0,29.94,NE,45,6.0,10.0,100,0.00,,,0.09,,2013-03-17 21:52:00,
2013-03-17 18:03:00,37.0,37.0,29.94,NE,45,6.0,10.0,100,0.00,,,0.09,,2013-03-17 22:03:00,
2013-03-17 18:12:00,37.0,37.0,29.93,ENE,67,7.0,10.0,100,0.00,,,0.09,,2013-03-17 22:12:00,
2013-03-17 18:23:00,37.0,37.0,29.93,ENE,67,7.0,10.0,100,0.00,,,0.09,,2013-03-17 22:23:00,
2013-03-17 18:33:00,36.0,36.0,29.94,NE,45,7.0,10.0,100,0.00,,,0.09,,2013-03-17 22:33:00,
2013-03-17 18:42:00,36.0,36.0,29.94,NE,45,7.0,10.0,100,0.00,,,0.09,,2013-03-17 22:42:00,
2013-03-17 18:52:00,36.0,36.0,29.94,NNW,337,5.0,12.0,100,0.00,,,0.09,,2013-03-17 22:52:00,
2013-03-17 19:02:00,36.0,36.0,29.95,NE,45,3.0,5.0,100,0.00,,,0.09,,2013-03-17 23:02:00,
2013-03-17 19:12:00,36.0,36.0,29.95,NE,45,3.0,5.0,100,0.00,,,0.09,,2013-03-17 23:12:00,
2013-03-17 19:22:00,36.0,36.0,29.95,NE,45,4.0,7.0,100,0.00,,,0.09,,2013-03-17 23:22:00,
2013-03-17 19:32:00,35.0,35.0,29.94,ENE,67,3.0,6.0,100,0.00,,,0.10,,2013-03-17 23:32:00,
2013-03-17 19:42:00,35.0,35.0,29.94,ENE,67,3.0,6.0,100,0.00,,,0.10,,2013-03-17 23:42:00,
2013-03-17 19:52:00,35.0,35.0,29.94,NE,45,4.0,7.0,100,0.00,,,0.10,,2013-03-17 23:52:00,
2013-03-17 20:03:00,35.0,35.0,29.91,NE,45,5.0,9.0,100,0.00,,,0.12,,2013-03-18 00:03:00,
2013-03-17 20:12:00,35.0,35.0,29.91,NE,45,5.0,9.0,100,0.00,,,0.12,,2013-03-18 00:12:00,
2013-03-17 20:22:00,35.0,35.0,29.92,East,90,3.0,5.0,100,0.00,,,0.13,,2013-03-18 00:22:00,
2013-03-17 20:33:00,35.0,35.0,29.94,NNE,22,5.0,10.0,100,0.00,,,0.14,,2013-03-18 00:33:00,
2013-03-17 20:42:00,35.0,35.0,29.94,NNE,22,5.0,10.0,100,0.00,,,0.14,,2013-03-18 00:42:00,
2013-03-17 20:52:00,34.0,34.0,29.94,ENE,67,5.0,9.0,100,0.00,,,0.16,,2013-03-18 00:52:00,
2013-03-17 21:01:00,34.0,34.0,29.91,NE,45,4.0,10.0,100,0.00,,,0.18,,2013-03-18 01:01:00,
2013-03-17 21:12:00,34.0,34.0,29.91,NE,45,4.0,10.0,100,0.00,,,0.18,,2013-03-18 01:12:00,
2013-03-17 21:22:00,34.0,34.0,29.89,ENE,67,3.0,6.0,100,0.00,,,0.21,,2013-03-18 01:22:00,
2013-03-17 21:32:00,34.0,34.0,29.89,SE,135,4.0,8.0,100,0.00,,,0.22,,2013-03-18 01:32:00,
2013-03-17 21:42:00,34.0,34.0,29.89,SE,135,4.0,8.0,100,0.00,,,0.22,,2013-03-18 01:42:00,
2013-03-17 21:52:00,34.0,34.0,29.89,ESE,112,6.0,11.0,100,0.00,,,0.22,,2013-03-18 01:52:00,
2013-03-17 22:02:00,34.0,34.0,29.89,ESE,112,6.0,11.0,100,0.00,,,0.22,,2013-03-18 02:02:00,
2013-03-17 22:12:00,34.0,34.0,29.89,ESE,112,6.0,11.0,100,0.00,,,0.22,,2013-03-18 02:12:00,
2013-03-17 22:22:00,34.0,34.0,29.88,NE,45,6.0,12.0,100,0.00,,,0.25,,2013-03-18 02:22:00,
2013-03-17 22:32:00,34.0,34.0,29.88,NE,45,4.0,6.0,100,0.00,,,0.26,,2013-03-18 02:32:00,
2013-03-17 22:42:00,34.0,34.0,29.88,NE,45,4.0,6.0,100,0.00,,,0.26,,2013-03-18 02:42:00,
2013-03-17 22:52:00,34.0,34.0,29.89,NW,315,3.0,6.0,100,0.00,,,0.27,,2013-03-18 02:52:00,
2013-03-17 23:02:00,34.0,34.0,29.90,NE,45,4.0,7.0,100,0.00,,,0.31,,2013-03-18 03:02:00,
2013-03-17 23:11:00,34.0,34.0,29.90,NE,45,4.0,7.0,100,0.00,,,0.31,,2013-03-18 03:11:00,
2013-03-17 23:22:00,34.0,34.0,29.90,NE,45,4.0,7.0,100,0.00,,,0.31,,2013-03-18 03:22:00,
2013-03-17 23:33:00,34.0,34.0,29.85,East,90,6.0,10.0,100,0.00,,,0.40,,2013-03-18 03:33:00,
2013-03-17 23:42:00,34.0,34.0,29.85,East,90,6.0,10.0,100,0.00,,,0.40,,2013-03-18 03:42:00,
2013-03-17 23:53:00,34.0,34.0,29.85,NE,45,5.0,11.0,100,0.00,,,0.46,,2013-03-18 03:53:00,